TimeEDT,TemperatureF,Dew PointF,Humidity,Sea Level PressureIn,VisibilityMPH,Wind Direction,Wind SpeedMPH,Gust SpeedMPH,PrecipitationIn,Events,Conditions,WindDirDegrees,DateUTC
12:56 AM,70.0,66.9,90,29.71,8.0,WNW,5.8,-,N/A,,Mostly Cloudy,290,2013-09-13 04:56:00
1:56 AM,69.1,64.9,87,29.71,10.0,NW,11.5,-,N/A,,Scattered Clouds,320,2013-09-13 05:56:00
2:56 AM,68.0,63.0,84,29.71,10.0,NW,12.7,18.4,N/A,,Overcast,320,2013-09-13 06:56:00
3:56 AM,66.9,59.0,76,29.71,10.0,NW,15.0,-,N/A,,Overcast,320,2013-09-13 07:56:00
4:56 AM,66.0,57.0,73,29.73,10.0,NW,11.5,-,N/A,,Overcast,320,2013-09-13 08:56:00
5:56 AM,64.9,55.9,73,29.73,10.0,NW,9.2,-,N/A,,Overcast,320,2013-09-13 09:56:00
6:56 AM,64.9,55.9,73,29.73,10.0,NNW,4.6,-,N/A,,Mostly Cloudy,330,2013-09-13 10:56:00
7:56 AM,66.0,57.9,75,29.75,10.0,WNW,9.2,-,0.00,Rain,Light Rain,290,2013-09-13 11:56:00
8:56 AM,66.9,57.0,70,29.76,10.0,WNW,10.4,-,0.00,,Partly Cloudy,300,2013-09-13 12:56:00
9:56 AM,69.1,55.0,61,29.78,10.0,NNW,12.7,-,N/A,,Scattered Clouds,330,2013-09-13 13:56:00
10:56 AM,71.1,54.0,55,29.78,10.0,NW,9.2,-,N/A,,Mostly Cloudy,310,2013-09-13 14:56:00
11:56 AM,71.1,53.1,53,29.78,10.0,NW,12.7,-,N/A,,Mostly Cloudy,320,2013-09-13 15:56:00
12:56 PM,72.0,50.0,46,29.77,10.0,NW,11.5,19.6,N/A,,Mostly Cloudy,320,2013-09-13 16:56:00
1:56 PM,75.0,52.0,44,29.76,10.0,WNW,16.1,-,N/A,,Mostly Cloudy,300,2013-09-13 17:56:00
2:56 PM,72.0,50.0,46,29.76,10.0,NNW,12.7,20.7,N/A,,Mostly Cloudy,340,2013-09-13 18:56:00
3:56 PM,73.0,48.9,42,29.77,10.0,NNW,10.4,-,N/A,,Scattered Clouds,340,2013-09-13 19:56:00
4:56 PM,73.0,43.0,34,29.78,10.0,NNW,12.7,25.3,N/A,,Scattered Clouds,330,2013-09-13 20:56:00
5:56 PM,70.0,43.0,38,29.79,10.0,NW,11.5,-,N/A,,Scattered Clouds,320,2013-09-13 21:56:00
6:56 PM,66.9,50.0,54,29.81,10.0,NW,16.1,-,N/A,,Scattered Clouds,310,2013-09-13 22:56:00
7:56 PM,64.0,52.0,65,29.85,10.0,West,4.6,-,N/A,,Scattered Clouds,270,2013-09-13 23:56:00
8:56 PM,66.0,46.0,48,29.88,10.0,NNW,11.5,-,N/A,,Mostly Cloudy,340,2013-09-14 00:56:00
9:56 PM,64.0,45.0,50,29.91,10.0,North,11.5,-,N/A,,Mostly Cloudy,350,2013-09-14 01:56:00
10:56 PM,61.0,46.9,60,29.93,10.0,North,9.2,-,N/A,,Mostly Cloudy,360,2013-09-14 02:56:00
11:56 PM,60.1,46.9,62,29.94,10.0,NNE,6.9,-,N/A,,Mostly Cloudy,30,2013-09-14 03:56:00